AD8BW Weather Reports


time (UTC)temp
C
wind
direction
speed
KPH
gust
KPH
rain 1hr
cm
rain 24hr
cm
rain mn
cm
humidity
%
barometer
mb
20260902060551 24 163 0.0 0.0 0.00 0.00 0.00 89 1014.3
20260902055556 24 163 0.0 3.2 0.00 0.00 0.00 88 1014.4
20260902054553 24 163 0.0 0.0 0.00 0.00 0.00 88 1014.5
20260902053553 24 163 0.0 0.0 0.00 0.00 0.00 88 1014.6
20260902052547 24 163 0.0 0.0 0.00 0.00 0.00 88 1014.6
20260902051544 24 163 0.0 3.2 0.00 0.00 0.00 88 1014.6
20260902050546 25 163 0.0 6.4 0.00 0.00 0.00 88 1014.7
20260902045545 25 187 0.0 0.0 0.00 0.00 0.00 87 1014.7
20260902044547 25 187 0.0 0.0 0.00 0.00 0.00 87 1014.7
20260902043544 25 180 0.0 0.0 0.00 0.00 0.00 86 1014.6
20260902042543 25 180 0.0 0.0 0.00 0.00 0.00 86 1014.5
20260902041546 25 180 0.0 0.0 0.00 0.00 0.00 86 1014.5
20260902040545 25 180 0.0 0.0 0.00 0.00 0.00 86 1014.4
20260902035537 25 180 0.0 0.0 0.00 0.00 0.00 85 1014.5
20260902034539 25 180 0.0 0.0 0.00 0.00 0.00 85 1014.5
20260902033537 25 180 0.0 0.0 0.00 0.00 0.00 85 1014.4
20260902032542 26 180 0.0 0.0 0.00 0.00 0.00 85 1014.4
20260902031538 26 180 0.0 0.0 0.00 0.00 0.00 85 1014.4
20260902030541 26 180 0.0 0.0 0.00 0.00 0.00 84 1014.2
20260902025538 26 180 0.0 0.0 0.00 0.00 0.00 84 1014.1
20260902024540 26 180 0.0 0.0 0.00 0.00 0.00 84 1014.1
20260902023536 26 174 0.0 0.0 0.00 0.00 0.00 83 1014.2
20260902022541 27 174 0.0 0.0 0.00 0.00 0.00 83 1014.2
20260902021556 27 174 0.0 0.0 0.00 0.00 0.00 83 1014.0
20260902020547 27 174 0.0 0.0 0.00 0.00 0.00 82 1014.1
20260902015531 27 174 0.0 6.4 0.00 0.00 0.00 82 1014.2
20260902014532 27 195 0.0 6.4 0.00 0.00 0.00 82 1014.3
20260902013533 27 174 0.0 6.4 0.00 0.00 0.00 82 1014.3
20260902012533 27 316 0.0 8.0 0.00 0.00 0.00 82 1014.2
20260902011532 28 187 0.0 3.2 0.00 0.00 0.00 81 1014.2
20260902010530 28 189 0.0 8.0 0.00 0.00 0.00 81 1014.0
20260902005530 28 179 0.0 11.3 0.00 0.00 0.00 81 1014.0
20260902004532 28 177 0.0 11.3 0.00 0.00 0.00 80 1013.8
20260902003524 28 232 0.0 11.3 0.00 0.00 0.00 79 1013.7
20260902002525 28 173 0.0 0.0 0.00 0.00 0.00 79 1013.7
20260902001526 28 173 0.0 0.0 0.00 0.00 0.00 79 1013.6
20260902000523 28 173 0.0 0.0 0.00 0.00 0.00 78 1013.7
20260901235523 28 173 0.0 0.0 0.00 0.00 0.00 78 1013.8
20260901234524 28 173 0.0 0.0 0.00 0.00 0.00 78 1013.8
20260901233528 29 173 0.0 3.2 0.00 0.00 0.00 77 1013.8
20260901232524 29 175 0.0 3.2 0.00 0.00 0.00 76 1013.9
20260901231528 29 229 0.0 3.2 0.00 0.00 0.00 75 1013.9
20260901230518 30 229 0.0 8.0 0.00 0.00 0.00 74 1013.9
20260901225516 30 244 3.2 11.3 0.00 0.00 0.00 73 1013.8
20260901224516 30 181 3.2 8.0 0.00 0.00 0.00 72 1013.8
20260901223518 30 154 3.2 11.3 0.00 0.00 0.00 72 1013.8
20260901222516 30 203 3.2 8.0 0.00 0.00 0.00 72 1013.8
20260901221518 30 232 3.2 11.3 0.00 0.00 0.00 71 1013.7
20260901220516 30 158 3.2 11.3 0.00 0.00 0.00 70 1013.6
20260901215519 30 165 3.2 11.3 0.00 0.00 0.00 71 1013.6
20260901214521 30 260 3.2 11.3 0.00 0.00 0.00 70 1013.5
20260901213516 30 203 3.2 14.5 0.00 0.00 0.00 70 1013.6
20260901212521 30 180 3.2 11.3 0.00 0.00 0.00 72 1013.7
20260901211518 30 191 3.2 11.3 0.00 0.00 0.00 70 1013.7
20260901210516 30 169 6.4 19.3 0.00 0.00 0.00 69 1013.8
20260901205516 31 270 3.2 17.7 0.00 0.00 0.00 69 1013.7
20260901204513 31 211 6.4 17.7 0.00 0.00 0.00 69 1013.7
20260901203515 31 190 3.2 17.7 0.00 0.00 0.00 70 1013.8
20260901202513 30 157 3.2 14.5 0.00 0.00 0.00 70 1013.9
20260901201516 31 180 6.4 14.5 0.00 0.00 0.00 70 1013.9
20260901200513 30 151 3.2 14.5 0.00 0.00 0.00 71 1013.8
20260901195512 30 221 3.2 14.5 0.00 0.00 0.00 71 1013.9
20260901194516 30 144 6.4 14.5 0.00 0.00 0.00 72 1013.9
20260901193515 31 344 3.2 22.5 0.00 0.00 0.00 70 1014.0
20260901192512 31 280 3.2 14.5 0.00 0.00 0.00 73 1014.1
20260901191515 30 173 6.4 14.5 0.00 0.00 0.00 72 1014.1
20260901190513 31 316 3.2 19.3 0.00 0.00 0.00 68 1014.0
20260901185533 31 234 3.2 19.3 0.00 0.03 0.00 69 1014.0
20260901184519 31 338 6.4 11.3 0.00 0.03 0.00 71 1013.9
20260901183511 31 342 3.2 17.7 0.00 0.03 0.00 72 1013.9
20260901182514 31 172 6.4 17.7 0.00 0.03 0.00 71 1014.0
20260901181512 31 315 3.2 17.7 0.00 0.03 0.00 71 1013.9
20260901180511 30 186 3.2 22.5 0.00 0.03 0.00 72 1013.9
20260901175529 30 319 3.2 17.7 0.00 0.03 0.00 74 1014.0
20260901174510 30 249 6.4 19.3 0.00 0.03 0.00 74 1014.1
20260901173510 30 178 6.4 14.5 0.00 0.03 0.00 73 1014.0
20260901172512 30 195 3.2 14.5 0.00 0.03 0.00 72 1014.1
20260901171507 30 146 3.2 14.5 0.00 0.03 0.00 73 1014.1
20260901170509 29 342 3.2 11.3 0.00 0.03 0.00 76 1014.0
20260901165510 29 331 3.2 14.5 0.00 0.03 0.00 75 1014.2
20260901164509 29 244 3.2 17.7 0.00 0.03 0.00 76 1014.5
20260901163509 28 266 3.2 14.5 0.00 0.03 0.00 77 1014.5
20260901162509 28 237 3.2 14.5 0.00 0.03 0.00 78 1014.7
20260901161510 28 296 3.2 11.3 0.00 0.03 0.00 80 1014.8
20260901160503 28 308 3.2 11.3 0.00 0.03 0.00 80 1014.8
20260901155504 28 151 3.2 11.3 0.00 0.03 0.00 80 1014.8
20260901154501 27 227 3.2 14.5 0.00 0.03 0.00 80 1014.8
20260901153501 27 182 3.2 11.3 0.00 0.03 0.00 81 1014.8
20260901152503 27 184 0.0 14.5 0.00 0.03 0.00 82 1014.8
20260901151501 27 240 3.2 14.5 0.00 0.03 0.00 83 1014.9
20260901150516 27 170 3.2 8.0 0.00 0.03 0.00 83 1014.8
20260901145504 26 181 0.0 8.0 0.00 0.03 0.00 85 1014.9
20260901144503 26 189 0.0 11.3 0.00 0.03 0.00 87 1014.8
20260901143501 25 285 0.0 6.4 0.00 0.03 0.00 91 1014.9
20260901142502 24 174 0.0 11.3 0.00 0.03 0.00 93 1014.9
20260901141502 23 270 3.2 8.0 0.00 0.03 0.00 94 1014.8
20260901140504 23 200 0.0 0.0 0.00 0.03 0.00 95 1014.8
20260901135502 23 317 0.0 0.0 0.00 0.03 0.00 95 1014.8
20260901134502 23 299 0.0 6.4 0.00 0.03 0.00 95 1014.8
20260901133501 23 309 0.0 6.4 0.00 0.03 0.00 95 1015.0
20260901132504 22 183 0.0 6.4 0.00 0.03 0.00 95 1014.9
20260901131501 22 261 0.0 3.2 0.00 0.03 0.00 95 1014.8
20260901130458 22 177 3.2 8.0 0.00 0.03 0.00 95 1014.8
20260901125501 22 191 3.2 11.3 0.00 0.03 0.00 95 1014.9
20260901124455 21 190 3.2 8.0 0.00 0.03 0.00 95 1014.9
20260901123456 21 202 0.0 6.4 0.00 0.03 0.00 95 1014.8
20260901122500 21 180 0.0 0.0 0.00 0.03 0.00 94 1014.7
20260901121457 20 180 0.0 0.0 0.00 0.03 0.00 93 1014.5
20260901120457 20 180 0.0 0.0 0.00 0.03 0.00 93 1014.6
20260901115459 20 180 0.0 0.0 0.00 0.03 0.00 93 1014.5
20260901114457 20 180 0.0 0.0 0.00 0.03 0.00 93 1014.5
20260901113457 20 180 0.0 0.0 0.00 0.03 0.00 92 1014.5
20260901112456 20 180 0.0 0.0 0.00 0.03 0.00 92 1014.3
20260901111456 20 180 0.0 0.0 0.00 0.03 0.00 92 1014.4
20260901110454 20 180 0.0 0.0 0.00 0.03 0.00 92 1014.3
20260901105456 20 180 0.0 0.0 0.00 0.03 0.00 92 1014.2
20260901104453 20 180 0.0 0.0 0.00 0.03 0.00 92 1014.1
20260901103451 20 180 0.0 0.0 0.00 0.03 0.00 92 1014.1
20260901102453 20 180 0.0 0.0 0.00 0.03 0.00 92 1014.2
20260901101450 21 180 0.0 0.0 0.00 0.03 0.00 92 1013.9
20260901100447 21 180 0.0 0.0 0.00 0.03 0.00 92 1013.9
20260901095449 21 180 0.0 0.0 0.00 0.03 0.00 92 1013.9
20260901094447 21 180 0.0 0.0 0.00 0.03 0.00 92 1014.0
20260901093451 21 180 0.0 0.0 0.00 0.03 0.00 92 1014.0
20260901092453 21 180 0.0 0.0 0.00 0.03 0.00 92 1014.1
20260901091449 21 180 0.0 0.0 0.00 0.03 0.00 91 1014.0
20260901090448 21 180 0.0 0.0 0.00 0.03 0.00 91 1013.9
20260901085441 21 180 0.0 0.0 0.00 0.03 0.00 91 1013.8
20260901084442 21 180 0.0 0.0 0.00 0.03 0.00 90 1013.7
20260901083443 21 180 0.0 0.0 0.00 0.03 0.00 90 1013.6
20260901082443 21 180 0.0 0.0 0.00 0.03 0.00 90 1013.7
20260901081441 21 180 0.0 0.0 0.00 0.03 0.00 90 1013.7
20260901080442 21 180 0.0 0.0 0.00 0.03 0.00 90 1013.7
20260901075441 21 180 0.0 0.0 0.00 0.03 0.00 89 1013.7
20260901074444 22 180 0.0 0.0 0.00 0.03 0.00 89 1013.6
20260901073457 22 180 0.0 0.0 0.00 0.03 0.00 89 1013.6
20260901072443 22 180 0.0 0.0 0.00 0.03 0.00 89 1013.7
20260901071437 22 180 0.0 0.0 0.00 0.03 0.00 89 1013.7
20260901070434 22 180 0.0 0.0 0.00 0.03 0.00 88 1013.9
20260901065434 22 180 0.0 0.0 0.00 0.03 0.00 88 1013.8
20260901064437 22 180 0.0 0.0 0.00 0.03 0.00 88 1013.7
20260901063436 23 180 0.0 0.0 0.00 0.03 0.00 88 1013.7
20260901062437 23 180 0.0 0.0 0.00 0.03 0.00 88 1013.8
20260901061435 23 180 0.0 0.0 0.00 0.03 0.00 88 1013.8